[[{"header":{"parameterUnit":"m.s-1","parameterCategory":1,"la1":30.2991,"la2":30.254,"lo1":-89.0895,"lo2":-89.0444,"dy":0.0017,"dx":0.0017,"nx":28,"ny":28,"refTime":"2023-09-10T09:00:00:Z","depth":0,"parameterNumber":2,"parameterNumberName":"U-component_of_WINDS"},"data":[0,0,0,0,0,0,0,0,0,0,0,0,0,0,0,0,0,0,0,0,0,0,0,0,0,0,0,0,0,0,0,0,0,0,0,0,0,0,0,0,0,0,0,0,0,0,0,0,0,0,0,0,0,0,0,0,0,0,0.2973,0.2973,0,0.2981,0.2981,0.2981,0.298,0.298,0.298,0.298,0.2987,0.2987,0.2987,0,0,0,0,0,0,0,0,0,0,0,0,0,0.2958,0.2958,0.2973,0.2973,0.2973,0.2981,0.2981,0.2981,0.298,0.298,0.298,0.298,0.2987,0.2987,0.2988,0,0,0,0,0,0,0,0,0,0,0,0,0,0.2965,0.2958,0.2973,0.2974,0.2974,0.2981,0.2981,0.2981,0.298,0.298,0.298,0.298,0.2987,0.2987,0.2988,0.2994,0,0,0.2989,0.2989,0,0,0,0,0,0,0,0,0.2964,0.2965,0.2974,0.2974,0.2974,0.2979,0.2978,0.2985,0.298,0.2978,0.298,0.298,0.2984,0.2985,0.2987,0.2994,0.2994,0.2989,0.2989,0.2989,0.2989,0,0,0,0,0,0,0,0.2964,0.2965,0.2976,0.2974,0.2974,0.2974,0.2975,0.2979,0.2982,0.2978,0.2978,0.2979,0.2985,0.2986,0.2987,0.2994,0.2989,0.2989,0.299,0.299,0.3006,0.3006,0,0,0,0,0,0,0.2963,0.2964,0.2976,0.2976,0.2969,0.2974,0.2975,0.2978,0.2982,0.2982,0.2979,0.2979,0.2986,0.2986,0.2987,0.2994,0.2989,0.299,0.299,0.3006,0.3006,0.3007,0,0,0,0,0,0,0.2963,0.2964,0.2976,0.297,0.2972,0.2975,0.2978,0.2978,0.298,0.2983,0.2983,0.2981,0.2986,0.2987,0.2992,0.2995,0.299,0.299,0.3006,0.3006,0.3006,0.3009,0,0,0,0,0,0,0.2962,0.2964,0.2967,0.297,0.2972,0.298,0.2978,0.2978,0.2981,0.2981,0.2984,0.2985,0.2986,0.2991,0.2992,0.2995,0.2991,0.3006,0.3006,0.3006,0.3008,0.3009,0.301,0,0,0,0,0,0.2962,0.2967,0.2967,0.2968,0.2975,0.2981,0.2981,0.2983,0.2981,0.2983,0.2985,0.2985,0.2994,0.2992,0.2993,0.2996,0.3005,0.3006,0.3006,0.3008,0.3009,0.301,0,0,0,0,0,0,0.2963,0.2967,0.2967,0.2974,0.2977,0.298,0.2984,0.2983,0.2987,0.2987,0.2988,0.2988,0.2994,0.2995,0.2993,0.3002,0.3,0.3,0.3001,0.3001,0.3002,0.3001,0.2991,0,0,0,0,0,0.2964,0.2968,0.2972,0.2977,0.2979,0.2981,0.2983,0.2984,0.2987,0.2988,0.299,0.2993,0.2997,0.2999,0.3003,0.3009,0.3009,0.3011,0.3012,0.3012,0.3013,0.3016,0.3017,0.3008,0.3008,0.3008,0,0,0.2966,0.2969,0.2971,0.2977,0.298,0.2984,0.2982,0.2986,0.2989,0.2989,0.2994,0.2996,0.2999,0.3004,0.3007,0.3006,0.3015,0.3013,0.3013,0.3013,0.3016,0.3017,0.3018,0.3008,0.3008,0.3008,0,0,0.2972,0.2975,0.2979,0.2982,0.2986,0.2987,0.2988,0.2992,0.2993,0.2998,0.2998,0.3001,0.3008,0.301,0.3012,0.3018,0.3018,0.302,0.3022,0.3025,0.3026,0.3027,0.3029,0.303,0.302,0.302,0.302,0,0.2974,0.298,0.2982,0.2986,0.2988,0.2988,0.2993,0.2995,0.3,0.3001,0.3,0.3008,0.301,0.3016,0.3018,0.302,0.3021,0.3019,0.3026,0.3027,0.3027,0.3029,0.303,0.302,0.302,0.302,0.302,0,0.2982,0.2987,0.299,0.2995,0.2997,0.3002,0.3004,0.3006,0.3007,0.3008,0.3013,0.3016,0.302,0.3021,0.3022,0.3028,0.3027,0.3026,0.3024,0.3028,0.303,0.3031,0.3021,0.302,0.302,0.302,0,0,0.2989,0.2994,0.2996,0.2998,0.3002,0.3005,0.3009,0.3013,0.3016,0.3019,0.3022,0.3028,0.3027,0.3029,0.3029,0.3032,0.3037,0.3031,0.3031,0.3032,0.3043,0.3044,0.3045,0.3037,0.3037,0.3037,0.3043,0,0.2995,0.3003,0.3004,0.3011,0.3015,0.3015,0.3019,0.3022,0.3023,0.3026,0.3028,0.3032,0.303,0.3031,0.3034,0.3036,0.3039,0.3035,0.304,0.304,0.3039,0.3046,0.3046,0.3052,0.3044,0.3044,0.3044,0,0.3003,0.3007,0.3014,0.3018,0.3019,0.3023,0.3026,0.303,0.3033,0.3034,0.3036,0.3036,0.304,0.3038,0.3044,0.3041,0.3043,0.3044,0.3044,0.3045,0.3042,0.3046,0.3053,0.3054,0.3045,0.3045,0.3045,0,0.3007,0.3014,0.3019,0.3021,0.3025,0.3027,0.3029,0.3032,0.3034,0.3038,0.3039,0.3043,0.3045,0.3047,0.3048,0.3047,0.3054,0.3052,0.3054,0.3054,0.3056,0.3056,0.3064,0.3057,0.3057,0.3057,0.3057,0,0.3014,0.3018,0.3021,0.3024,0.3029,0.303,0.3035,0.3036,0.3039,0.3042,0.3043,0.3046,0.3047,0.305,0.3051,0.3055,0.3056,0.3057,0.3057,0.3057,0.3057,0.3058,0.3058,0.3058,0.3057,0.3057,0.3057,0,0.3019,0.3021,0.3026,0.303,0.3031,0.3034,0.3037,0.304,0.3042,0.3046,0.3047,0.3049,0.3053,0.3054,0.3059,0.3059,0.3064,0.3064,0.3063,0.3063,0.3066,0.3066,0.3075,0.3076,0.3069,0.3069,0.3069,0,0.3023,0.3026,0.303,0.3033,0.3035,0.3038,0.3041,0.3042,0.3045,0.3048,0.3051,0.3054,0.3057,0.3063,0.3065,0.3069,0.3069,0.3071,0.3069,0.3069,0.3068,0.3068,0.3068,0.3072,0.3072,0.3072,0.3072,0,0.303,0.303,0.3034,0.3038,0.3041,0.3044,0.3047,0.3049,0.3051,0.3053,0.3057,0.306,0.3064,0.3068,0.3071,0.3073,0.3073,0.3073,0.3074,0.3073,0.3073,0.3073,0.3064,0.3073,0.3073,0.3073,0.3072,0.3072,0.3034,0.3037,0.304,0.3044,0.3047,0.305,0.3052,0.3054,0.3058,0.3062,0.3062,0.3066,0.3069,0.3074,0.3076,0.3079,0.3078,0.3079,0.3079,0.308,0.308,0.3072,0.3079,0.3079,0.3079,0.3079,0.3079,0,0.3041,0.3043,0.3047,0.3051,0.3054,0.3054,0.3057,0.3059,0.3063,0.3066,0.3069,0.3073,0.3077,0.3079,0.3082,0.3084,0.3084,0.3085,0.3085,0.3085,0.308,0.3079,0.3085,0.3085,0.3085,0.3085,0.3085,0.3085,0.3045,0.305,0.3051,0.3057,0.3059,0.3063,0.3065,0.3067,0.307,0.3075,0.3078,0.3079,0.3081,0.3085,0.3088,0.3089,0.309,0.3091,0.3091,0.3086,0.3086,0.3085,0.3084,0.3091,0.3091,0.3096,0.3096,0.3096]},{"header":{"parameterUnit":"m.s-1","parameterCategory":1,"la1":30.2991,"la2":30.254,"lo1":-89.0895,"lo2":-89.0444,"dy":0.0017,"dx":0.0017,"nx":28,"ny":28,"refTime":"2023-09-10T09:00:00:Z","depth":0,"parameterNumber":3,"parameterNumberName":"V-component_of_WINDS"},"data":[0,0,0,0,0,0,0,0,0,0,0,0,0,0,0,0,0,0,0,0,0,0,0,0,0,0,0,0,0,0,0,0,0,0,0,0,0,0,0,0,0,0,0,0,0,0,0,0,0,0,0,0,0,0,0,0,0,0,0.9208,0.9208,0,0.9203,0.9203,0.9203,0.9204,0.9204,0.9204,0.9204,0.9198,0.9198,0.9198,0,0,0,0,0,0,0,0,0,0,0,0,0,0.9216,0.9216,0.9208,0.9208,0.9208,0.9203,0.9203,0.9203,0.9204,0.9204,0.9204,0.9204,0.9198,0.9198,0.9198,0,0,0,0,0,0,0,0,0,0,0,0,0,0.9212,0.9216,0.9208,0.9207,0.9207,0.9203,0.9203,0.9203,0.9204,0.9204,0.9204,0.9204,0.9198,0.9198,0.9198,0.9193,0,0,0.9197,0.9196,0,0,0,0,0,0,0,0,0.9212,0.9212,0.9207,0.9207,0.9207,0.9204,0.9204,0.92,0.9204,0.9205,0.9204,0.9204,0.92,0.9199,0.9198,0.9193,0.9193,0.9197,0.9196,0.9196,0.9196,0,0,0,0,0,0,0,0.9212,0.9212,0.9206,0.9207,0.9207,0.9207,0.9207,0.9203,0.9202,0.9205,0.9205,0.9204,0.92,0.9199,0.9198,0.9193,0.9197,0.9196,0.9196,0.9196,0.9183,0.9183,0,0,0,0,0,0,0.9213,0.9212,0.9206,0.9206,0.921,0.9207,0.9206,0.9205,0.9202,0.9202,0.9204,0.9205,0.9199,0.9199,0.9198,0.9193,0.9196,0.9196,0.9196,0.9183,0.9183,0.9183,0,0,0,0,0,0,0.9213,0.9212,0.9206,0.9209,0.9208,0.9207,0.9205,0.9205,0.9204,0.9202,0.9201,0.9203,0.9199,0.9198,0.9194,0.9192,0.9196,0.9195,0.9183,0.9183,0.9183,0.9182,0,0,0,0,0,0,0.9213,0.9212,0.9211,0.9209,0.9208,0.9203,0.9205,0.9205,0.9203,0.9203,0.9201,0.92,0.9199,0.9195,0.9194,0.9192,0.9195,0.9184,0.9183,0.9183,0.9182,0.9181,0.9181,0,0,0,0,0,0.9214,0.921,0.9211,0.921,0.9206,0.9203,0.9202,0.9202,0.9203,0.9201,0.92,0.92,0.9193,0.9195,0.9194,0.9191,0.9184,0.9183,0.9183,0.9182,0.9182,0.9181,0,0,0,0,0,0,0.9212,0.921,0.9211,0.9207,0.9205,0.9203,0.9201,0.9201,0.9199,0.9199,0.9198,0.9197,0.9193,0.9192,0.9194,0.9187,0.9188,0.9188,0.9188,0.9187,0.9187,0.9187,0.9195,0,0,0,0,0,0.9211,0.9209,0.9207,0.9204,0.9203,0.9202,0.9201,0.9201,0.9199,0.9198,0.9196,0.9194,0.9191,0.9189,0.9186,0.9182,0.9181,0.918,0.9179,0.9179,0.9178,0.9176,0.9175,0.9182,0.9182,0.9182,0,0,0.9209,0.9208,0.9207,0.9204,0.9202,0.92,0.9202,0.9199,0.9197,0.9197,0.9193,0.9192,0.9189,0.9185,0.9183,0.9184,0.9177,0.9179,0.9178,0.9178,0.9176,0.9175,0.9174,0.9182,0.9182,0.9182,0,0,0.9205,0.9204,0.9201,0.92,0.9198,0.9197,0.9197,0.9195,0.9194,0.919,0.919,0.9188,0.9183,0.9181,0.918,0.9175,0.9175,0.9174,0.9172,0.9169,0.9169,0.9168,0.9166,0.9166,0.9173,0.9173,0.9173,0,0.9203,0.92,0.92,0.9197,0.9196,0.9196,0.9193,0.9192,0.9189,0.9188,0.9189,0.9183,0.9181,0.9176,0.9175,0.9174,0.9173,0.9174,0.9169,0.9168,0.9168,0.9166,0.9165,0.9173,0.9173,0.9173,0.9173,0,0.9197,0.9195,0.9193,0.9191,0.9189,0.9186,0.9185,0.9184,0.9184,0.9183,0.9179,0.9177,0.9174,0.9173,0.9172,0.9168,0.9168,0.9169,0.9171,0.9167,0.9165,0.9165,0.9173,0.9173,0.9173,0.9173,0,0,0.9191,0.9189,0.9189,0.9188,0.9186,0.9184,0.9181,0.9178,0.9177,0.9175,0.9172,0.9168,0.9169,0.9167,0.9167,0.9164,0.9161,0.9165,0.9165,0.9164,0.9155,0.9155,0.9154,0.9161,0.9161,0.916,0.9156,0,0.9187,0.9182,0.9182,0.9178,0.9176,0.9176,0.9174,0.9172,0.9171,0.9169,0.9168,0.9165,0.9166,0.9165,0.9163,0.9162,0.9159,0.9162,0.9158,0.9158,0.9159,0.9153,0.9153,0.9148,0.9155,0.9155,0.9155,0,0.9181,0.9179,0.9175,0.9173,0.9172,0.917,0.9168,0.9166,0.9164,0.9163,0.9161,0.9161,0.9158,0.916,0.9155,0.9157,0.9156,0.9155,0.9155,0.9154,0.9156,0.9153,0.9147,0.9146,0.9154,0.9154,0.9154,0,0.9177,0.9174,0.9171,0.917,0.9168,0.9166,0.9165,0.9164,0.9162,0.916,0.9159,0.9156,0.9155,0.9152,0.9151,0.9153,0.9147,0.9149,0.9146,0.9146,0.9145,0.9145,0.9139,0.9144,0.9144,0.9144,0.9144,0,0.9172,0.9169,0.9169,0.9167,0.9164,0.9164,0.9161,0.916,0.9158,0.9156,0.9156,0.9154,0.9153,0.915,0.9149,0.9146,0.9145,0.9144,0.9144,0.9144,0.9144,0.9143,0.9143,0.9144,0.9144,0.9144,0.9144,0,0.9167,0.9167,0.9164,0.9162,0.9162,0.916,0.9158,0.9156,0.9156,0.9153,0.9152,0.9151,0.9148,0.9147,0.9143,0.9143,0.9138,0.9138,0.9139,0.9139,0.9137,0.9137,0.9129,0.9128,0.9134,0.9134,0.9134,0,0.9164,0.9162,0.9161,0.9159,0.9158,0.9156,0.9155,0.9155,0.9153,0.9151,0.9149,0.9146,0.9144,0.9139,0.9138,0.9135,0.9135,0.9132,0.9134,0.9135,0.9135,0.9135,0.9135,0.9132,0.9132,0.9132,0.9132,0,0.9158,0.9158,0.9157,0.9155,0.9153,0.9151,0.915,0.9149,0.9148,0.9146,0.9144,0.9142,0.9138,0.9136,0.9133,0.9131,0.9131,0.9131,0.9131,0.9131,0.9131,0.9131,0.9138,0.9131,0.9132,0.9132,0.9132,0.9132,0.9154,0.9153,0.9151,0.9149,0.9148,0.9147,0.9145,0.9144,0.9142,0.9139,0.9139,0.9136,0.9134,0.9131,0.9129,0.9127,0.9127,0.9126,0.9126,0.9126,0.9126,0.9132,0.9126,0.9126,0.9126,0.9126,0.9126,0,0.9149,0.9148,0.9146,0.9144,0.9142,0.9143,0.9141,0.914,0.9137,0.9136,0.9134,0.9131,0.9128,0.9126,0.9124,0.9122,0.9122,0.9121,0.9121,0.9121,0.9125,0.9126,0.9121,0.9121,0.9121,0.9121,0.9121,0.9121,0.9145,0.9143,0.9142,0.9139,0.9138,0.9136,0.9135,0.9133,0.9132,0.9129,0.9127,0.9126,0.9124,0.9121,0.9119,0.9118,0.9117,0.9116,0.9116,0.912,0.912,0.9121,0.9122,0.9116,0.9116,0.9112,0.9112,0.9112]}]]